Powrót do katalogu

E3TESTER

AktywnyNaukaSSO
NORAD 66662·PAYLOAD·🇰🇷 South Korea

Wystrzelony Nov 26, 2025 z Naro Space Center

Loading…

Następne Przeloty (najbliższe 24 godziny)

TLE

ŚwieżeSource: Space-Track

Epoka: Sep 13, 2026, 18:05 UTC

1 66662U 25274N   26256.75362771  .00001935  00000-0  18423-3 0  9994
2 66662  97.7486 185.1092 0016444  84.4220 275.8875 14.94471660 43465

Śledź E3TESTER w czasie rzeczywistym z AllMySat

Download on the App Store